Regional Weather Roundup
Issued by NWS Green Bay, WI

Home | Current Version | Previous Version | Text Only | Print | Product List | Glossary On
Versions: 1 2 3 4 5 6 7 8 9 10 11 12 13 14 15 16 17 18 19 20 21 22 23 24 25 26 27 28 29 30 31 32 33 34 35 36 37 38 39 40 41 42 43 44 45 46 47 48 49 50
000
ASUS43 KGRB 310059
RWRGRB

NORTH-CENTRAL AND NORTHEAST WISCONSIN REGIONAL WEATHER ROUNDUP
NATIONAL WEATHER SERVICE GREEN BAY WI
800 PM CDT SAT AUG 30 2014

WIZ005-009-010>012-018-019-310200-
NORTH CENTRAL WISCONSIN

CITY           SKY/WX    TMP DP  RH WIND       PRES   REMARKS
IRONWOOD       NOT AVBL
MANITOWISH WTR NOT AVBL
ARBOR VITAE    NOT AVBL
EAGLE RIVER    NOT AVBL
LAND O LAKES   NOT AVBL
RHINELANDER    MOCLDY    59  56  89 N3        29.91R
PHILLIPS       NOT AVBL
ANTIGO         NOT AVBL
TOMAHAWK       NOT AVBL
MERRILL        NOT AVBL
$$

WIZ013-073-310200-
NORTHEAST WISCONSIN

CITY           SKY/WX    TMP DP  RH WIND       PRES   REMARKS
IRON MOUNTAIN  CLOUDY    61  57  87 NW10      29.84R
MARINETTE      MOCLDY    64  61  88 N7        29.82R
$$

WIZ017-030-035>037-045-310200-
CENTRAL WISCONSIN

CITY           SKY/WX    TMP DP  RH WIND       PRES   REMARKS
MEDFORD        NOT AVBL
WAUSAU         CLOUDY    64  60  87 NW7       29.87R
MOSINEE        CLOUDY    64  63  94 NW9       29.89R
MARSHFIELD     CLOUDY    66  61  84 N9        29.88R
WISC RAPIDS    CLOUDY    69  62  78 NW9       29.88R
STEVENS POINT  NOT AVBL
WAUPACA        NOT AVBL
SHAWANO        CLOUDY    69  64  84 NW7       29.85R
CLINTONVILLE   NOT AVBL
$$

WIZ038-039-048-051-310200-
FOX VALLEY

CITY           SKY/WX    TMP DP  RH WIND       PRES   REMARKS
NWS GREEN BAY  MOCLDY    69  66  90 NW6       29.84R
APPLETON       MOCLDY    68  66  94 W7        29.85R
OSHKOSH        PTCLDY    70  66  87 SW5       29.84R
FOND DU LAC    CLEAR     69  67  93 SW3       29.85R
$$

WIZ022-050-052-310200-
EAST CENTRAL WISCONSIN

CITY           SKY/WX    TMP DP  RH WIND       PRES   REMARKS
STURGEON BAY   CLOUDY    66  63  88 N8        29.83R
MANITOWOC      NOT AVBL
SHEBOYGAN      CLEAR     69  65  86 W7        29.83R
$$

LMZ563-521-522-541>543-310200-
LAKESHORE

STATION/POSITION TIME  TEMP    WIND        PRES    VSBY  WAVE
                       AIR SEA DIR/SP/G                  HT/PER
                 (UTC) (F)     (DEG/KT/KT) (MB)    (MI)  (FT/S)
SHEBOYGAN LKSHOR 0000   72 52  250/  7/  8 1009.3R
KEWAUNEE LKSHORE 0000   70     320/  5/  7 1008.5R
NORTHPORT PIER   0000   66     330/ 16/ 20 1008.5R
N MID LAKE BUOY  0000   63 65  320/ 19/ 23 1007.2R         4/ 6
S GREEN BAY BUOY 0000   69     VRB 12/ 16  1010.6R
STURGEON BAY CG  0000   71 66  320/  2     1009.0   3 1/2  3
CHAMBERS ISLAND  0000   66     300/ 11/ 13 1009.8R
MENOMINEE LKSHOR 0000   66     330/ 11/ 12 1010.2R
$$



USA.gov is the U.S. government's official web portal to all federal, state and local government web resources and services.